Time,TemperatureF,DewpointF,PressureIn,WindDirection,WindDirectionDegrees,WindSpeedMPH,WindSpeedGustMPH,Humidity,HourlyPrecipIn,Conditions,Clouds,dailyrainin,SolarRadiationWatts/m^2,SoftwareType,DateUTC
2013-06-13 00:04:00,68.0,58.7,29.83,NNE,22,5.0,5.0,72,-99.99,,,0.00,0.00,VWS V14.01,2013-06-13 04:04:00,
2013-06-13 00:09:00,68.0,58.7,29.83,NNE,22,5.0,8.0,72,-99.99,,,0.00,0.00,VWS V14.01,2013-06-13 04:09:00,
2013-06-13 00:14:00,68.0,59.0,29.83,North,0,3.0,3.0,73,-99.99,,,0.00,0.00,VWS V14.01,2013-06-13 04:14:00,
2013-06-13 00:19:00,68.0,59.0,29.83,NE,45,5.0,7.0,73,-99.99,,,0.00,0.00,VWS V14.01,2013-06-13 04:19:00,
2013-06-13 00:24:00,68.0,58.7,29.83,NNW,338,4.0,6.0,72,-99.99,,,0.00,0.00,VWS V14.01,2013-06-13 04:24:00,
2013-06-13 00:29:00,69.0,59.6,29.82,North,0,3.0,6.0,72,-99.99,,,0.00,0.00,VWS V14.01,2013-06-13 04:29:00,
2013-06-13 00:34:00,68.0,58.7,29.82,North,0,9.0,9.0,72,-99.99,,,0.00,0.00,VWS V14.01,2013-06-13 04:34:00,
2013-06-13 00:39:00,68.0,58.7,29.81,ENE,68,3.0,6.0,72,-99.99,,,0.00,0.00,VWS V14.01,2013-06-13 04:39:00,
2013-06-13 00:44:00,68.0,58.7,29.81,NE,45,5.0,8.0,72,-99.99,,,0.00,0.00,VWS V14.01,2013-06-13 04:44:00,
2013-06-13 00:49:00,68.0,58.7,29.81,NE,45,4.0,6.0,72,-99.99,,,0.00,0.00,VWS V14.01,2013-06-13 04:49:00,
2013-06-13 00:54:00,68.0,59.4,29.81,NNE,22,3.0,6.0,74,-99.99,,,0.00,0.00,VWS V14.01,2013-06-13 04:54:00,
2013-06-13 00:59:00,67.0,58.8,29.81,NE,45,4.0,6.0,75,-99.99,,,0.00,0.00,VWS V14.01,2013-06-13 04:59:00,
2013-06-13 01:04:00,67.0,59.2,29.81,North,0,1.0,8.0,76,-99.99,,,0.00,0.00,VWS V14.01,2013-06-13 05:04:00,
2013-06-13 01:09:00,67.0,59.2,29.80,NNE,22,4.0,6.0,76,-99.99,,,0.00,0.00,VWS V14.01,2013-06-13 05:09:00,
2013-06-13 01:14:00,67.0,59.2,29.79,North,0,6.0,7.0,76,-99.99,,,0.00,0.00,VWS V14.01,2013-06-13 05:14:00,
2013-06-13 01:19:00,68.0,59.8,29.79,NNE,22,3.0,7.0,75,-99.99,,,0.00,0.00,VWS V14.01,2013-06-13 05:19:00,
2013-06-13 01:24:00,68.0,59.0,29.79,North,0,8.0,8.0,73,-99.99,,,0.00,0.00,VWS V14.01,2013-06-13 05:24:00,
2013-06-13 01:29:00,68.0,59.0,29.79,NE,45,6.0,7.0,73,-99.99,,,0.00,0.00,VWS V14.01,2013-06-13 05:29:00,
2013-06-13 01:34:00,68.0,59.0,29.79,NE,45,5.0,7.0,73,-99.99,,,0.00,0.00,VWS V14.01,2013-06-13 05:34:00,
2013-06-13 01:39:00,68.0,59.0,29.78,NE,45,4.0,6.0,73,-99.99,,,0.00,0.00,VWS V14.01,2013-06-13 05:39:00,
2013-06-13 01:44:00,68.0,59.0,29.78,NNE,22,1.0,3.0,73,-99.99,,,0.00,0.00,VWS V14.01,2013-06-13 05:44:00,
2013-06-13 01:49:00,67.0,58.8,29.78,West,270,2.0,8.0,75,-99.99,,,0.00,0.00,VWS V14.01,2013-06-13 05:49:00,
2013-06-13 01:54:00,67.0,58.8,29.78,North,0,4.0,6.0,75,-99.99,,,0.00,0.00,VWS V14.01,2013-06-13 05:54:00,
2013-06-13 01:59:00,67.0,58.5,29.78,North,0,3.0,5.0,74,-99.99,,,0.00,0.00,VWS V14.01,2013-06-13 05:59:00,
2013-06-13 02:04:00,68.0,59.0,29.78,NE,45,4.0,5.0,73,-99.99,,,0.00,0.00,VWS V14.01,2013-06-13 06:04:00,
2013-06-13 02:09:00,68.0,58.7,29.78,NNE,22,5.0,6.0,72,-99.99,,,0.00,0.00,VWS V14.01,2013-06-13 06:09:00,
2013-06-13 02:14:00,68.0,58.3,29.78,NNE,22,3.0,10.0,71,-99.99,,,0.00,0.00,VWS V14.01,2013-06-13 06:14:00,
2013-06-13 02:19:00,69.0,58.8,29.79,NNE,22,6.0,7.0,70,-99.99,,,0.00,0.00,VWS V14.01,2013-06-13 06:19:00,
2013-06-13 02:24:00,69.0,58.4,29.79,NE,45,2.0,4.0,69,-99.99,,,0.00,0.00,VWS V14.01,2013-06-13 06:24:00,
2013-06-13 02:29:00,69.0,58.0,29.79,ENE,68,3.0,4.0,68,-99.99,,,0.00,0.00,VWS V14.01,2013-06-13 06:29:00,
2013-06-13 02:34:00,69.0,59.6,29.78,ESE,112,2.0,3.0,72,-99.99,,,0.00,0.00,VWS V14.01,2013-06-13 06:34:00,
2013-06-13 02:39:00,68.0,59.4,29.78,ESE,112,1.0,3.0,74,-99.99,,,0.00,0.00,VWS V14.01,2013-06-13 06:39:00,
2013-06-13 02:44:00,68.0,60.2,29.79,SW,225,2.0,2.0,76,-99.99,,,0.00,0.00,VWS V14.01,2013-06-13 06:44:00,
2013-06-13 02:49:00,67.0,60.6,29.80,SW,225,6.0,8.0,80,-99.99,,,0.00,0.00,VWS V14.01,2013-06-13 06:49:00,
2013-06-13 02:54:00,66.0,60.3,29.80,SW,225,3.0,5.0,82,-99.99,,,0.00,0.00,VWS V14.01,2013-06-13 06:54:00,
2013-06-13 02:59:00,66.0,61.0,29.78,SE,135,0.0,1.0,84,-99.99,,,0.02,0.00,VWS V14.01,2013-06-13 06:59:00,
2013-06-13 03:04:00,66.0,61.4,29.78,ENE,68,0.0,1.0,85,-99.99,,,0.02,0.00,VWS V14.01,2013-06-13 07:04:00,
2013-06-13 03:09:00,65.0,60.7,29.79,WNW,292,1.0,2.0,86,-99.99,,,0.02,0.00,VWS V14.01,2013-06-13 07:09:00,
2013-06-13 03:14:00,65.0,61.4,29.78,North,0,2.0,2.0,88,-99.99,,,0.02,0.00,VWS V14.01,2013-06-13 07:14:00,
2013-06-13 03:19:00,65.0,61.7,29.78,NNW,338,2.0,3.0,89,-99.99,,,0.03,0.00,VWS V14.01,2013-06-13 07:19:00,
2013-06-13 03:24:00,65.0,62.0,29.77,NE,45,3.0,3.0,90,-99.99,,,0.03,0.00,VWS V14.01,2013-06-13 07:24:00,
2013-06-13 03:29:00,65.0,61.7,29.77,NE,45,3.0,4.0,89,-99.99,,,0.03,0.00,VWS V14.01,2013-06-13 07:29:00,
2013-06-13 03:34:00,65.0,61.7,29.78,NE,45,1.0,1.0,89,-99.99,,,0.03,0.00,VWS V14.01,2013-06-13 07:34:00,
2013-06-13 03:39:00,65.0,61.4,29.77,SE,135,2.0,3.0,88,-99.99,,,0.03,0.00,VWS V14.01,2013-06-13 07:39:00,
2013-06-13 03:44:00,65.0,61.7,29.77,SE,135,2.0,3.0,89,-99.99,,,0.03,0.00,VWS V14.01,2013-06-13 07:44:00,
2013-06-13 03:49:00,65.0,62.3,29.76,East,90,1.0,3.0,91,-99.99,,,0.03,0.00,VWS V14.01,2013-06-13 07:49:00,
2013-06-13 03:54:00,65.0,62.6,29.76,NE,45,2.0,3.0,92,-99.99,,,0.03,0.00,VWS V14.01,2013-06-13 07:54:00,
2013-06-13 03:59:00,65.0,62.9,29.75,North,0,4.0,4.0,93,-99.99,,,0.03,0.00,VWS V14.01,2013-06-13 07:59:00,
2013-06-13 04:04:00,65.0,62.9,29.75,NNE,22,6.0,7.0,93,-99.99,,,0.03,0.00,VWS V14.01,2013-06-13 08:04:00,
2013-06-13 04:09:00,64.0,61.9,29.75,North,0,3.0,5.0,93,-99.99,,,0.03,0.00,VWS V14.01,2013-06-13 08:09:00,
2013-06-13 04:14:00,65.0,62.6,29.75,ENE,68,5.0,5.0,92,-99.99,,,0.03,0.00,VWS V14.01,2013-06-13 08:14:00,
2013-06-13 04:19:00,65.0,62.0,29.74,NNE,22,6.0,7.0,90,-99.99,,,0.03,0.00,VWS V14.01,2013-06-13 08:19:00,
2013-06-13 04:24:00,65.0,62.0,29.74,NE,45,4.0,8.0,90,-99.99,,,0.03,0.00,VWS V14.01,2013-06-13 08:24:00,
2013-06-13 04:29:00,65.0,62.3,29.74,North,0,4.0,5.0,91,-99.99,,,0.03,0.00,VWS V14.01,2013-06-13 08:29:00,
2013-06-13 04:34:00,65.0,62.3,29.73,NNE,22,5.0,10.0,91,-99.99,,,0.03,0.00,VWS V14.01,2013-06-13 08:34:00,
2013-06-13 04:39:00,65.0,62.6,29.73,NE,45,7.0,8.0,92,-99.99,,,0.03,0.00,VWS V14.01,2013-06-13 08:39:00,
2013-06-13 04:44:00,65.0,62.6,29.73,NNE,22,4.0,8.0,92,-99.99,,,0.03,0.00,VWS V14.01,2013-06-13 08:44:00,
2013-06-13 04:49:00,65.0,62.6,29.73,NE,45,6.0,8.0,92,-99.99,,,0.03,0.00,VWS V14.01,2013-06-13 08:49:00,
2013-06-13 04:54:00,65.0,62.6,29.73,NNE,22,7.0,8.0,92,-99.99,,,0.03,0.00,VWS V14.01,2013-06-13 08:54:00,
2013-06-13 04:59:00,65.0,62.6,29.73,NNE,22,4.0,6.0,92,-99.99,,,0.04,0.00,VWS V14.01,2013-06-13 08:59:00,
2013-06-13 05:04:00,65.0,62.6,29.74,NNE,22,4.0,6.0,92,-99.99,,,0.05,0.00,VWS V14.01,2013-06-13 09:04:00,
2013-06-13 05:09:00,65.0,62.9,29.72,NE,45,3.0,5.0,93,-99.99,,,0.06,0.00,VWS V14.01,2013-06-13 09:09:00,
2013-06-13 05:14:00,65.0,62.9,29.72,NE,45,6.0,8.0,93,-99.99,,,0.08,0.00,VWS V14.01,2013-06-13 09:14:00,
2013-06-13 05:19:00,64.0,62.2,29.72,NE,45,5.0,7.0,94,-99.99,,,0.09,0.00,VWS V14.01,2013-06-13 09:19:00,
2013-06-13 05:24:00,64.0,62.5,29.72,ENE,68,3.0,7.0,95,-99.99,,,0.09,0.00,VWS V14.01,2013-06-13 09:24:00,
2013-06-13 05:29:00,64.0,62.5,29.72,NNE,22,5.0,6.0,95,-99.99,,,0.09,0.00,VWS V14.01,2013-06-13 09:29:00,
2013-06-13 05:34:00,64.0,62.5,29.71,North,0,9.0,11.0,95,-99.99,,,0.09,0.00,VWS V14.01,2013-06-13 09:34:00,
2013-06-13 05:39:00,65.0,63.2,29.70,South,180,5.0,11.0,94,-99.99,,,0.09,0.00,VWS V14.01,2013-06-13 09:39:00,
2013-06-13 05:44:00,65.0,63.2,29.70,NE,45,7.0,9.0,94,-99.99,,,0.09,0.00,VWS V14.01,2013-06-13 09:44:00,
2013-06-13 05:49:00,65.0,62.9,29.69,NNE,22,7.0,11.0,93,-99.99,,,0.09,0.00,VWS V14.01,2013-06-13 09:49:00,
2013-06-13 05:54:00,65.0,62.9,29.69,NNE,22,6.0,9.0,93,-99.99,,,0.09,0.00,VWS V14.01,2013-06-13 09:54:00,
2013-06-13 05:59:00,65.0,62.9,29.69,NNE,22,4.0,8.0,93,-99.99,,,0.09,10.00,VWS V14.01,2013-06-13 09:59:00,
2013-06-13 06:04:00,65.0,62.9,29.69,NNE,22,3.0,4.0,93,-99.99,,,0.09,10.00,VWS V14.01,2013-06-13 10:04:00,
2013-06-13 06:09:00,65.0,62.9,29.70,WNW,292,2.0,4.0,93,-99.99,,,0.09,0.00,VWS V14.01,2013-06-13 10:09:00,
2013-06-13 06:14:00,64.0,61.9,29.70,NW,315,4.0,7.0,93,-99.99,,,0.09,10.00,VWS V14.01,2013-06-13 10:14:00,
2013-06-13 06:19:00,65.0,63.2,29.70,NNE,22,3.0,8.0,94,-99.99,,,0.09,10.00,VWS V14.01,2013-06-13 10:19:00,
2013-06-13 06:24:00,64.0,62.2,29.69,NNE,22,5.0,8.0,94,-99.99,,,0.09,10.00,VWS V14.01,2013-06-13 10:24:00,
2013-06-13 06:29:00,64.0,62.2,29.69,North,0,6.0,9.0,94,-99.99,,,0.09,10.00,VWS V14.01,2013-06-13 10:29:00,
2013-06-13 06:34:00,64.0,62.2,29.70,NE,45,5.0,5.0,94,-99.99,,,0.09,20.00,VWS V14.01,2013-06-13 10:34:00,
2013-06-13 06:39:00,64.0,62.5,29.69,NNE,22,9.0,10.0,95,-99.99,,,0.09,10.00,VWS V14.01,2013-06-13 10:39:00,
2013-06-13 06:44:00,64.0,62.5,29.68,North,0,10.0,10.0,95,-99.99,,,0.09,10.00,VWS V14.01,2013-06-13 10:44:00,
2013-06-13 06:49:00,64.0,62.8,29.68,North,0,6.0,9.0,96,-99.99,,,0.09,10.00,VWS V14.01,2013-06-13 10:49:00,
2013-06-13 06:54:00,64.0,62.8,29.68,NE,45,6.0,10.0,96,-99.99,,,0.09,10.00,VWS V14.01,2013-06-13 10:54:00,
2013-06-13 06:59:00,64.0,62.8,29.68,NNE,22,5.0,10.0,96,-99.99,,,0.09,10.00,VWS V14.01,2013-06-13 10:59:00,
2013-06-13 07:04:00,64.0,62.8,29.68,NE,45,6.0,9.0,96,-99.99,,,0.09,0.00,VWS V14.01,2013-06-13 11:04:00,
2013-06-13 07:09:00,64.0,62.8,29.67,NNW,338,8.0,13.0,96,-99.99,,,0.09,0.00,VWS V14.01,2013-06-13 11:09:00,
2013-06-13 07:14:00,64.0,62.8,29.68,NNW,338,9.0,9.0,96,-99.99,,,0.09,0.00,VWS V14.01,2013-06-13 11:14:00,
2013-06-13 07:19:00,64.0,62.5,29.67,NNW,338,5.0,8.0,95,-99.99,,,0.09,0.00,VWS V14.01,2013-06-13 11:19:00,
2013-06-13 07:24:00,64.0,62.8,29.67,NNE,22,6.0,11.0,96,-99.99,,,0.10,0.00,VWS V14.01,2013-06-13 11:24:00,
2013-06-13 07:29:00,64.0,62.8,29.69,WNW,292,4.0,5.0,96,-99.99,,,0.11,0.00,VWS V14.01,2013-06-13 11:29:00,
2013-06-13 07:34:00,64.0,62.8,29.69,NW,315,5.0,6.0,96,-99.99,,,0.12,0.00,VWS V14.01,2013-06-13 11:34:00,
2013-06-13 07:39:00,64.0,62.8,29.70,NW,315,1.0,3.0,96,-99.99,,,0.16,0.00,VWS V14.01,2013-06-13 11:39:00,
2013-06-13 07:44:00,64.0,62.8,29.70,ENE,68,4.0,7.0,96,-99.99,,,0.20,0.00,VWS V14.01,2013-06-13 11:44:00,
2013-06-13 07:49:00,64.0,62.8,29.71,SSW,202,4.0,5.0,96,-99.99,,,0.28,0.00,VWS V14.01,2013-06-13 11:49:00,
2013-06-13 07:54:00,64.0,63.1,29.70,NE,45,5.0,5.0,97,-99.99,,,0.30,0.00,VWS V14.01,2013-06-13 11:54:00,
2013-06-13 07:59:00,64.0,63.4,29.68,ENE,68,8.0,11.0,98,-99.99,,,0.32,10.00,VWS V14.01,2013-06-13 11:59:00,
2013-06-13 08:04:00,64.0,63.7,29.68,NE,45,5.0,9.0,99,-99.99,,,0.34,10.00,VWS V14.01,2013-06-13 12:04:00,
2013-06-13 08:09:00,63.0,62.7,29.68,East,90,5.0,16.0,99,-99.99,,,0.36,10.00,VWS V14.01,2013-06-13 12:09:00,
2013-06-13 08:14:00,63.0,63.0,29.67,ENE,68,7.0,10.0,100,-99.99,,,0.38,20.00,VWS V14.01,2013-06-13 12:14:00,
2013-06-13 08:19:00,63.0,63.0,29.66,NE,45,8.0,11.0,100,-99.99,,,0.40,20.00,VWS V14.01,2013-06-13 12:19:00,
2013-06-13 08:24:00,63.0,63.0,29.65,ENE,68,7.0,11.0,100,-99.99,,,0.40,30.00,VWS V14.01,2013-06-13 12:24:00,
2013-06-13 08:29:00,63.0,62.7,29.64,NE,45,11.0,13.0,99,-99.99,,,0.42,30.00,VWS V14.01,2013-06-13 12:29:00,
2013-06-13 08:34:00,63.0,62.7,29.63,East,90,7.0,20.0,99,-99.99,,,0.42,50.00,VWS V14.01,2013-06-13 12:34:00,
2013-06-13 08:39:00,63.0,62.7,29.63,ENE,68,6.0,10.0,99,-99.99,,,0.43,50.00,VWS V14.01,2013-06-13 12:39:00,
2013-06-13 08:44:00,63.0,62.4,29.62,ENE,68,10.0,10.0,98,-99.99,,,0.43,60.00,VWS V14.01,2013-06-13 12:44:00,
2013-06-13 08:49:00,63.0,62.4,29.61,NE,45,9.0,10.0,98,-99.99,,,0.44,70.00,VWS V14.01,2013-06-13 12:49:00,
2013-06-13 08:54:00,63.0,62.4,29.60,NE,45,3.0,8.0,98,-99.99,,,0.44,110.00,VWS V14.01,2013-06-13 12:54:00,
2013-06-13 08:59:00,63.0,62.4,29.59,ENE,68,13.0,14.0,98,-99.99,,,0.44,120.00,VWS V14.01,2013-06-13 12:59:00,
2013-06-13 09:04:00,63.0,62.4,29.59,NE,45,13.0,18.0,98,-99.99,,,0.44,140.00,VWS V14.01,2013-06-13 13:04:00,
2013-06-13 09:09:00,63.0,62.4,29.60,ENE,68,7.0,10.0,98,-99.99,,,0.44,170.00,VWS V14.01,2013-06-13 13:09:00,
2013-06-13 09:14:00,64.0,63.4,29.60,NNE,22,5.0,12.0,98,-99.99,,,0.44,150.00,VWS V14.01,2013-06-13 13:14:00,
2013-06-13 09:19:00,64.0,63.1,29.59,NE,45,8.0,9.0,97,-99.99,,,0.44,150.00,VWS V14.01,2013-06-13 13:19:00,
2013-06-13 09:24:00,64.0,63.1,29.58,ENE,68,10.0,11.0,97,-99.99,,,0.44,140.00,VWS V14.01,2013-06-13 13:24:00,
2013-06-13 09:29:00,65.0,63.5,29.57,NNE,22,10.0,16.0,95,-99.99,,,0.44,210.00,VWS V14.01,2013-06-13 13:29:00,
2013-06-13 09:34:00,65.0,63.5,29.58,NNE,22,5.0,10.0,95,-99.99,,,0.44,290.00,VWS V14.01,2013-06-13 13:34:00,
2013-06-13 09:39:00,65.0,63.2,29.57,NNE,22,5.0,5.0,94,-99.99,,,0.44,410.00,VWS V14.01,2013-06-13 13:39:00,
2013-06-13 09:44:00,66.0,64.5,29.58,NW,315,4.0,5.0,95,-99.99,,,0.44,360.00,VWS V14.01,2013-06-13 13:44:00,
2013-06-13 09:49:00,67.0,64.9,29.57,NNE,22,7.0,9.0,93,-99.99,,,0.44,610.00,VWS V14.01,2013-06-13 13:49:00,
2013-06-13 09:54:00,67.0,64.3,29.57,NNE,22,5.0,6.0,91,-99.99,,,0.44,440.00,VWS V14.01,2013-06-13 13:54:00,
2013-06-13 09:59:00,67.0,64.3,29.58,NE,45,5.0,6.0,91,-99.99,,,0.44,470.00,VWS V14.01,2013-06-13 13:59:00,
2013-06-13 10:04:00,68.0,65.0,29.58,NNE,22,3.0,4.0,90,-99.99,,,0.44,340.00,VWS V14.01,2013-06-13 14:04:00,
2013-06-13 10:09:00,68.0,64.3,29.58,WNW,292,4.0,7.0,88,-99.99,,,0.44,250.00,VWS V14.01,2013-06-13 14:09:00,
2013-06-13 10:14:00,68.0,64.3,29.58,SE,135,3.0,4.0,88,-99.99,,,0.44,300.00,VWS V14.01,2013-06-13 14:14:00,
2013-06-13 10:19:00,69.0,65.6,29.58,ESE,112,4.0,5.0,89,-99.99,,,0.44,220.00,VWS V14.01,2013-06-13 14:19:00,
2013-06-13 10:24:00,69.0,65.0,29.58,SSW,202,5.0,5.0,87,-99.99,,,0.44,130.00,VWS V14.01,2013-06-13 14:24:00,
2013-06-13 10:29:00,69.0,65.0,29.58,ESE,112,2.0,4.0,87,-99.99,,,0.44,120.00,VWS V14.01,2013-06-13 14:29:00,
2013-06-13 10:34:00,69.0,65.0,29.58,East,90,7.0,9.0,87,-99.99,,,0.44,120.00,VWS V14.01,2013-06-13 14:34:00,
2013-06-13 10:39:00,69.0,65.0,29.57,ENE,68,5.0,13.0,87,-99.99,,,0.44,120.00,VWS V14.01,2013-06-13 14:39:00,
2013-06-13 10:44:00,69.0,65.0,29.56,SSE,158,7.0,11.0,87,-99.99,,,0.44,170.00,VWS V14.01,2013-06-13 14:44:00,
2013-06-13 10:49:00,69.0,65.0,29.56,ESE,112,12.0,14.0,87,-99.99,,,0.44,130.00,VWS V14.01,2013-06-13 14:49:00,
2013-06-13 10:54:00,69.0,65.3,29.56,ENE,68,4.0,8.0,88,-99.99,,,0.44,150.00,VWS V14.01,2013-06-13 14:54:00,
2013-06-13 10:59:00,69.0,65.0,29.56,East,90,8.0,11.0,87,-99.99,,,0.44,130.00,VWS V14.01,2013-06-13 14:59:00,
2013-06-13 11:04:00,69.0,65.0,29.55,NE,45,3.0,9.0,87,-99.99,,,0.44,130.00,VWS V14.01,2013-06-13 15:04:00,
2013-06-13 11:09:00,69.0,65.0,29.55,ESE,112,4.0,7.0,87,-99.99,,,0.44,140.00,VWS V14.01,2013-06-13 15:09:00,
2013-06-13 11:14:00,69.0,65.0,29.55,ESE,112,3.0,5.0,87,-99.99,,,0.44,120.00,VWS V14.01,2013-06-13 15:14:00,
2013-06-13 11:19:00,69.0,64.6,29.55,ESE,112,6.0,10.0,86,-99.99,,,0.44,80.00,VWS V14.01,2013-06-13 15:19:00,
2013-06-13 11:24:00,69.0,64.3,29.55,SSW,202,6.0,13.0,85,-99.99,,,0.44,110.00,VWS V14.01,2013-06-13 15:24:00,
2013-06-13 11:29:00,69.0,64.6,29.55,SE,135,9.0,11.0,86,-99.99,,,0.44,170.00,VWS V14.01,2013-06-13 15:29:00,
2013-06-13 11:34:00,69.0,64.3,29.55,SE,135,13.0,17.0,85,-99.99,,,0.44,100.00,VWS V14.01,2013-06-13 15:34:00,
2013-06-13 11:39:00,69.0,65.0,29.54,ENE,68,8.0,11.0,87,-99.99,,,0.44,390.00,VWS V14.01,2013-06-13 15:39:00,
2013-06-13 11:44:00,69.0,64.3,29.54,ENE,68,5.0,16.0,85,-99.99,,,0.44,340.00,VWS V14.01,2013-06-13 15:44:00,
2013-06-13 11:49:00,70.0,64.9,29.54,South,180,8.0,12.0,84,-99.99,,,0.44,380.00,VWS V14.01,2013-06-13 15:49:00,
2013-06-13 11:54:00,70.0,64.6,29.54,SE,135,11.0,14.0,83,-99.99,,,0.44,390.00,VWS V14.01,2013-06-13 15:54:00,
2013-06-13 11:59:00,71.0,65.6,29.53,SE,135,10.0,14.0,83,-99.99,,,0.44,460.00,VWS V14.01,2013-06-13 15:59:00,
2013-06-13 12:04:00,71.0,65.2,29.53,SE,135,6.0,7.0,82,-99.99,,,0.44,400.00,VWS V14.01,2013-06-13 16:04:00,
2013-06-13 12:09:00,71.0,65.2,29.52,ESE,112,10.0,10.0,82,-99.99,,,0.44,840.00,VWS V14.01,2013-06-13 16:09:00,
2013-06-13 12:14:00,72.0,65.9,29.52,SE,135,10.0,15.0,81,-99.99,,,0.44,380.00,VWS V14.01,2013-06-13 16:14:00,
2013-06-13 12:19:00,73.0,66.5,29.52,ESE,112,8.0,16.0,80,-99.99,,,0.44,620.00,VWS V14.01,2013-06-13 16:19:00,
2013-06-13 12:24:00,73.0,65.7,29.51,ESE,112,14.0,19.0,78,-99.99,,,0.44,840.00,VWS V14.01,2013-06-13 16:24:00,
2013-06-13 12:29:00,73.0,65.7,29.51,SE,135,12.0,16.0,78,-99.99,,,0.44,680.00,VWS V14.01,2013-06-13 16:29:00,
2013-06-13 12:34:00,73.0,66.1,29.51,ESE,112,6.0,11.0,79,-99.99,,,0.44,440.00,VWS V14.01,2013-06-13 16:34:00,
2013-06-13 12:39:00,73.0,65.7,29.51,SSE,158,5.0,10.0,78,-99.99,,,0.44,370.00,VWS V14.01,2013-06-13 16:39:00,
2013-06-13 12:44:00,73.0,66.1,29.50,ESE,112,12.0,16.0,79,-99.99,,,0.44,530.00,VWS V14.01,2013-06-13 16:44:00,
2013-06-13 12:49:00,73.0,66.1,29.50,SSW,202,6.0,11.0,79,-99.99,,,0.44,350.00,VWS V14.01,2013-06-13 16:49:00,
2013-06-13 12:54:00,73.0,66.1,29.49,SE,135,5.0,8.0,79,-99.99,,,0.44,340.00,VWS V14.01,2013-06-13 16:54:00,
2013-06-13 12:59:00,73.0,66.1,29.49,ENE,68,9.0,15.0,79,-99.99,,,0.44,450.00,VWS V14.01,2013-06-13 16:59:00,
2013-06-13 13:04:00,73.0,65.7,29.48,ESE,112,7.0,13.0,78,-99.99,,,0.44,580.00,VWS V14.01,2013-06-13 17:04:00,
2013-06-13 13:09:00,73.0,66.1,29.48,South,180,4.0,10.0,79,-99.99,,,0.44,450.00,VWS V14.01,2013-06-13 17:09:00,
2013-06-13 13:14:00,74.0,67.1,29.48,ESE,112,12.0,13.0,79,-99.99,,,0.44,480.00,VWS V14.01,2013-06-13 17:14:00,
2013-06-13 13:19:00,74.0,66.7,29.48,SE,135,6.0,10.0,78,-99.99,,,0.44,750.00,VWS V14.01,2013-06-13 17:19:00,
2013-06-13 13:24:00,76.0,68.3,29.48,SE,135,3.0,5.0,77,-99.99,,,0.44,260.00,VWS V14.01,2013-06-13 17:24:00,
2013-06-13 13:29:00,76.0,67.9,29.47,SSE,158,5.0,7.0,76,-99.99,,,0.44,270.00,VWS V14.01,2013-06-13 17:29:00,
2013-06-13 13:34:00,75.0,66.9,29.47,ESE,112,4.0,6.0,76,-99.99,,,0.44,90.00,VWS V14.01,2013-06-13 17:34:00,
2013-06-13 13:39:00,75.0,67.3,29.47,SSE,158,5.0,8.0,77,-99.99,,,0.44,40.00,VWS V14.01,2013-06-13 17:39:00,
2013-06-13 13:44:00,75.0,67.7,29.47,East,90,5.0,9.0,78,-99.99,,,0.44,40.00,VWS V14.01,2013-06-13 17:44:00,
2013-06-13 13:49:00,75.0,68.1,29.46,ESE,112,5.0,12.0,79,-99.99,,,0.44,60.00,VWS V14.01,2013-06-13 17:49:00,
2013-06-13 13:54:00,74.0,67.1,29.46,East,90,6.0,12.0,79,-99.99,,,0.44,70.00,VWS V14.01,2013-06-13 17:54:00,
2013-06-13 13:59:00,74.0,67.1,29.46,ESE,112,11.0,11.0,79,-99.99,,,0.44,60.00,VWS V14.01,2013-06-13 17:59:00,
2013-06-13 14:04:00,74.0,67.8,29.46,SE,135,8.0,13.0,81,-99.99,,,0.44,50.00,VWS V14.01,2013-06-13 18:04:00,
2013-06-13 14:09:00,74.0,68.2,29.46,ESE,112,6.0,13.0,82,-99.99,,,0.44,30.00,VWS V14.01,2013-06-13 18:09:00,
2013-06-13 14:14:00,73.0,67.5,29.46,SE,135,12.0,16.0,83,-99.99,,,0.44,30.00,VWS V14.01,2013-06-13 18:14:00,
2013-06-13 14:19:00,73.0,67.9,29.47,WSW,248,7.0,12.0,84,-99.99,,,0.44,20.00,VWS V14.01,2013-06-13 18:19:00,
2013-06-13 14:24:00,71.0,67.6,29.47,West,270,13.0,23.0,89,-99.99,,,0.54,20.00,VWS V14.01,2013-06-13 18:24:00,
2013-06-13 14:29:00,71.0,68.2,29.46,West,270,22.0,29.0,91,-99.99,,,0.70,70.00,VWS V14.01,2013-06-13 18:29:00,
2013-06-13 14:34:00,71.0,68.2,29.47,South,180,11.0,13.0,91,-99.99,,,0.70,130.00,VWS V14.01,2013-06-13 18:34:00,
2013-06-13 14:39:00,72.0,69.2,29.47,South,180,7.0,9.0,91,-99.99,,,0.70,120.00,VWS V14.01,2013-06-13 18:39:00,
2013-06-13 14:44:00,72.0,68.9,29.47,SSW,202,4.0,4.0,90,-99.99,,,0.70,150.00,VWS V14.01,2013-06-13 18:44:00,
2013-06-13 14:49:00,72.0,69.2,29.46,SSW,202,6.0,6.0,91,-99.99,,,0.70,80.00,VWS V14.01,2013-06-13 18:49:00,
2013-06-13 14:54:00,72.0,69.6,29.46,SSW,202,4.0,6.0,92,-99.99,,,0.70,100.00,VWS V14.01,2013-06-13 18:54:00,
2013-06-13 14:59:00,72.0,69.6,29.47,WSW,248,12.0,13.0,92,-99.99,,,0.70,40.00,VWS V14.01,2013-06-13 18:59:00,
2013-06-13 15:04:00,71.0,68.9,29.46,WSW,248,10.0,17.0,93,-99.99,,,0.71,60.00,VWS V14.01,2013-06-13 19:04:00,
2013-06-13 15:09:00,71.0,69.2,29.47,SW,225,19.0,20.0,94,-99.99,,,0.71,50.00,VWS V14.01,2013-06-13 19:09:00,
2013-06-13 15:14:00,71.0,69.2,29.47,SSW,202,12.0,21.0,94,-99.99,,,0.72,350.00,VWS V14.01,2013-06-13 19:14:00,
2013-06-13 15:19:00,71.0,69.5,29.47,SSW,202,10.0,17.0,95,-99.99,,,0.72,190.00,VWS V14.01,2013-06-13 19:19:00,
2013-06-13 15:24:00,72.0,69.9,29.47,WSW,248,7.0,11.0,93,-99.99,,,0.72,210.00,VWS V14.01,2013-06-13 19:24:00,
2013-06-13 15:29:00,72.0,69.9,29.47,SW,225,7.0,8.0,93,-99.99,,,0.72,240.00,VWS V14.01,2013-06-13 19:29:00,
2013-06-13 15:34:00,72.0,69.6,29.46,SW,225,6.0,14.0,92,-99.99,,,0.72,220.00,VWS V14.01,2013-06-13 19:34:00,
2013-06-13 15:39:00,73.0,69.2,29.46,ESE,112,6.0,22.0,88,-99.99,,,0.72,220.00,VWS V14.01,2013-06-13 19:39:00,
2013-06-13 15:44:00,73.0,68.6,29.46,SSW,202,7.0,15.0,86,-99.99,,,0.72,460.00,VWS V14.01,2013-06-13 19:44:00,
2013-06-13 15:49:00,74.0,68.9,29.46,SW,225,8.0,14.0,84,-99.99,,,0.72,330.00,VWS V14.01,2013-06-13 19:49:00,
2013-06-13 15:54:00,74.0,68.2,29.46,SW,225,16.0,20.0,82,-99.99,,,0.72,320.00,VWS V14.01,2013-06-13 19:54:00,
2013-06-13 15:59:00,74.0,67.8,29.46,SSW,202,13.0,17.0,81,-99.99,,,0.72,260.00,VWS V14.01,2013-06-13 19:59:00,
2013-06-13 16:04:00,74.0,67.4,29.46,SW,225,10.0,24.0,80,-99.99,,,0.72,230.00,VWS V14.01,2013-06-13 20:04:00,
2013-06-13 16:09:00,74.0,67.1,29.46,SSW,202,14.0,23.0,79,-99.99,,,0.72,210.00,VWS V14.01,2013-06-13 20:09:00,
2013-06-13 16:14:00,73.0,66.1,29.46,SSW,202,11.0,24.0,79,-99.99,,,0.72,270.00,VWS V14.01,2013-06-13 20:14:00,
2013-06-13 16:19:00,74.0,67.1,29.46,SSW,202,10.0,18.0,79,-99.99,,,0.72,310.00,VWS V14.01,2013-06-13 20:19:00,
2013-06-13 16:24:00,74.0,66.7,29.46,SSW,202,11.0,19.0,78,-99.99,,,0.72,220.00,VWS V14.01,2013-06-13 20:24:00,
2013-06-13 16:29:00,74.0,66.7,29.45,SSW,202,16.0,20.0,78,-99.99,,,0.72,240.00,VWS V14.01,2013-06-13 20:29:00,
2013-06-13 16:34:00,74.0,66.7,29.46,WSW,248,13.0,18.0,78,-99.99,,,0.72,200.00,VWS V14.01,2013-06-13 20:34:00,
2013-06-13 16:39:00,73.0,65.7,29.46,West,270,8.0,22.0,78,-99.99,,,0.72,110.00,VWS V14.01,2013-06-13 20:39:00,
2013-06-13 16:44:00,73.0,65.7,29.46,SSW,202,9.0,19.0,78,-99.99,,,0.72,70.00,VWS V14.01,2013-06-13 20:44:00,
2013-06-13 16:49:00,73.0,66.1,29.46,SSW,202,20.0,20.0,79,-99.99,,,0.72,50.00,VWS V14.01,2013-06-13 20:49:00,
2013-06-13 16:54:00,72.0,65.1,29.45,SW,225,13.0,15.0,79,-99.99,,,0.72,50.00,VWS V14.01,2013-06-13 20:54:00,
2013-06-13 16:59:00,72.0,64.8,29.46,SSW,202,16.0,22.0,78,-99.99,,,0.72,50.00,VWS V14.01,2013-06-13 20:59:00,
2013-06-13 17:04:00,72.0,65.1,29.46,South,180,14.0,19.0,79,-99.99,,,0.72,60.00,VWS V14.01,2013-06-13 21:04:00,
2013-06-13 17:09:00,72.0,65.1,29.46,SW,225,14.0,18.0,79,-99.99,,,0.72,90.00,VWS V14.01,2013-06-13 21:09:00,
2013-06-13 17:14:00,72.0,65.5,29.46,SSW,202,11.0,16.0,80,-99.99,,,0.72,60.00,VWS V14.01,2013-06-13 21:14:00,
2013-06-13 17:19:00,72.0,65.5,29.46,South,180,8.0,12.0,80,-99.99,,,0.72,60.00,VWS V14.01,2013-06-13 21:19:00,
2013-06-13 17:24:00,72.0,65.9,29.46,SSW,202,5.0,9.0,81,-99.99,,,0.72,40.00,VWS V14.01,2013-06-13 21:24:00,
2013-06-13 17:29:00,72.0,65.9,29.46,East,90,3.0,9.0,81,-99.99,,,0.72,40.00,VWS V14.01,2013-06-13 21:29:00,
2013-06-13 17:34:00,72.0,65.9,29.46,SW,225,7.0,10.0,81,-99.99,,,0.72,40.00,VWS V14.01,2013-06-13 21:34:00,
2013-06-13 17:39:00,72.0,65.9,29.46,SSE,158,6.0,17.0,81,-99.99,,,0.72,40.00,VWS V14.01,2013-06-13 21:39:00,
2013-06-13 17:44:00,72.0,65.5,29.46,SSE,158,4.0,11.0,80,-99.99,,,0.72,30.00,VWS V14.01,2013-06-13 21:44:00,
2013-06-13 17:49:00,71.0,64.5,29.46,SSW,202,11.0,15.0,80,-99.99,,,0.72,50.00,VWS V14.01,2013-06-13 21:49:00,
2013-06-13 17:54:00,71.0,64.9,29.45,SW,225,10.0,21.0,81,-99.99,,,0.72,70.00,VWS V14.01,2013-06-13 21:54:00,
2013-06-13 17:59:00,71.0,64.9,29.45,SW,225,13.0,16.0,81,-99.99,,,0.72,80.00,VWS V14.01,2013-06-13 21:59:00,
2013-06-13 18:04:00,71.0,64.9,29.45,SW,225,4.0,13.0,81,-99.99,,,0.72,70.00,VWS V14.01,2013-06-13 22:04:00,
2013-06-13 18:09:00,71.0,64.9,29.45,SW,225,4.0,13.0,81,-99.99,,,0.72,20.00,VWS V14.01,2013-06-13 22:09:00,
2013-06-13 18:14:00,71.0,64.9,29.45,SE,135,6.0,8.0,81,-99.99,,,0.72,20.00,VWS V14.01,2013-06-13 22:14:00,
2013-06-13 18:19:00,71.0,64.9,29.45,SW,225,11.0,14.0,81,-99.99,,,0.72,10.00,VWS V14.01,2013-06-13 22:19:00,
2013-06-13 18:24:00,71.0,64.9,29.46,SSW,202,16.0,19.0,81,-99.99,,,0.72,10.00,VWS V14.01,2013-06-13 22:24:00,
2013-06-13 18:29:00,71.0,65.2,29.46,SW,225,9.0,16.0,82,-99.99,,,0.72,20.00,VWS V14.01,2013-06-13 22:29:00,
2013-06-13 18:34:00,70.0,64.6,29.46,SSW,202,13.0,17.0,83,-99.99,,,0.72,20.00,VWS V14.01,2013-06-13 22:34:00,
2013-06-13 18:39:00,69.0,64.3,29.46,SSW,202,11.0,23.0,85,-99.99,,,0.72,20.00,VWS V14.01,2013-06-13 22:39:00,
2013-06-13 18:44:00,69.0,65.0,29.46,SSW,202,18.0,22.0,87,-99.99,,,0.72,20.00,VWS V14.01,2013-06-13 22:44:00,
2013-06-13 18:49:00,69.0,65.3,29.46,SW,225,15.0,16.0,88,-99.99,,,0.72,20.00,VWS V14.01,2013-06-13 22:49:00,
2013-06-13 18:54:00,68.0,64.6,29.46,SW,225,10.0,13.0,89,-99.99,,,0.72,20.00,VWS V14.01,2013-06-13 22:54:00,
2013-06-13 18:59:00,68.0,65.3,29.46,SSW,202,11.0,21.0,91,-99.99,,,0.72,30.00,VWS V14.01,2013-06-13 22:59:00,
2013-06-13 19:04:00,68.0,65.6,29.46,WSW,248,14.0,17.0,92,-99.99,,,0.72,30.00,VWS V14.01,2013-06-13 23:04:00,
2013-06-13 19:09:00,67.0,64.9,29.47,SSW,202,4.0,8.0,93,-99.99,,,0.72,20.00,VWS V14.01,2013-06-13 23:09:00,
2013-06-13 19:14:00,67.0,65.2,29.47,South,180,5.0,10.0,94,-99.99,,,0.72,20.00,VWS V14.01,2013-06-13 23:14:00,
2013-06-13 19:19:00,67.0,65.2,29.47,SW,225,7.0,9.0,94,-99.99,,,0.72,20.00,VWS V14.01,2013-06-13 23:19:00,
2013-06-13 19:24:00,67.0,65.5,29.48,WSW,248,10.0,11.0,95,-99.99,,,0.72,10.00,VWS V14.01,2013-06-13 23:24:00,
2013-06-13 19:29:00,67.0,65.5,29.48,WSW,248,4.0,10.0,95,-99.99,,,0.72,30.00,VWS V14.01,2013-06-13 23:29:00,
2013-06-13 19:34:00,67.0,65.8,29.48,WSW,248,4.0,4.0,96,-99.99,,,0.72,20.00,VWS V14.01,2013-06-13 23:34:00,
2013-06-13 19:39:00,67.0,65.8,29.48,SW,225,15.0,15.0,96,-99.99,,,0.72,20.00,VWS V14.01,2013-06-13 23:39:00,
2013-06-13 19:44:00,67.0,65.8,29.49,WSW,248,13.0,16.0,96,-99.99,,,0.72,30.00,VWS V14.01,2013-06-13 23:44:00,
2013-06-13 19:49:00,67.0,65.5,29.49,West,270,12.0,18.0,95,-99.99,,,0.72,30.00,VWS V14.01,2013-06-13 23:49:00,
2013-06-13 19:54:00,66.0,63.6,29.49,WSW,248,21.0,25.0,92,-99.99,,,0.72,30.00,VWS V14.01,2013-06-13 23:54:00,
2013-06-13 19:59:00,65.0,62.6,29.50,WNW,292,18.0,18.0,92,-99.99,,,0.72,10.00,VWS V14.01,2013-06-13 23:59:00,
2013-06-13 20:04:00,65.0,62.6,29.51,WSW,248,13.0,18.0,92,-99.99,,,0.72,10.00,VWS V14.01,2013-06-14 00:04:00,
2013-06-13 20:09:00,65.0,62.9,29.52,WSW,248,13.0,14.0,93,-99.99,,,0.72,10.00,VWS V14.01,2013-06-14 00:09:00,
2013-06-13 20:14:00,64.0,61.9,29.52,WSW,248,9.0,13.0,93,-99.99,,,0.72,0.00,VWS V14.01,2013-06-14 00:14:00,
2013-06-13 20:19:00,64.0,62.2,29.52,West,270,8.0,11.0,94,-99.99,,,0.72,0.00,VWS V14.01,2013-06-14 00:19:00,
2013-06-13 20:24:00,64.0,62.2,29.52,West,270,6.0,12.0,94,-99.99,,,0.72,0.00,VWS V14.01,2013-06-14 00:24:00,
2013-06-13 20:29:00,64.0,62.5,29.53,WSW,248,8.0,10.0,95,-99.99,,,0.72,0.00,VWS V14.01,2013-06-14 00:29:00,
2013-06-13 20:34:00,63.0,61.5,29.53,West,270,7.0,11.0,95,-99.99,,,0.72,0.00,VWS V14.01,2013-06-14 00:34:00,
2013-06-13 20:39:00,63.0,61.8,29.53,WSW,248,9.0,12.0,96,-99.99,,,0.72,0.00,VWS V14.01,2013-06-14 00:39:00,
2013-06-13 20:44:00,63.0,61.8,29.53,WNW,292,6.0,11.0,96,-99.99,,,0.73,0.00,VWS V14.01,2013-06-14 00:44:00,
2013-06-13 20:49:00,63.0,61.5,29.54,West,270,12.0,13.0,95,-99.99,,,0.73,0.00,VWS V14.01,2013-06-14 00:49:00,
2013-06-13 20:54:00,63.0,61.5,29.54,West,270,3.0,9.0,95,-99.99,,,0.73,0.00,VWS V14.01,2013-06-14 00:54:00,
2013-06-13 20:59:00,63.0,61.5,29.55,WNW,292,6.0,8.0,95,-99.99,,,0.74,0.00,VWS V14.01,2013-06-14 00:59:00,
2013-06-13 21:04:00,63.0,61.5,29.55,WNW,292,10.0,10.0,95,-99.99,,,0.74,0.00,VWS V14.01,2013-06-14 01:04:00,
2013-06-13 21:09:00,62.0,60.6,29.56,NW,315,8.0,12.0,95,-99.99,,,0.74,0.00,VWS V14.01,2013-06-14 01:09:00,
2013-06-13 21:14:00,62.0,60.6,29.56,WNW,292,5.0,8.0,95,-99.99,,,0.74,0.00,VWS V14.01,2013-06-14 01:14:00,
2013-06-13 21:19:00,62.0,60.6,29.57,NW,315,6.0,9.0,95,-99.99,,,0.74,0.00,VWS V14.01,2013-06-14 01:19:00,
2013-06-13 21:24:00,62.0,60.6,29.58,NNE,22,4.0,8.0,95,-99.99,,,0.75,0.00,VWS V14.01,2013-06-14 01:24:00,
2013-06-13 21:29:00,62.0,60.6,29.58,NW,315,6.0,10.0,95,-99.99,,,0.75,0.00,VWS V14.01,2013-06-14 01:29:00,
2013-06-13 21:34:00,61.0,59.6,29.58,WNW,292,2.0,5.0,95,-99.99,,,0.76,0.00,VWS V14.01,2013-06-14 01:34:00,
2013-06-13 21:39:00,61.0,59.6,29.59,WNW,292,4.0,9.0,95,-99.99,,,0.76,0.00,VWS V14.01,2013-06-14 01:39:00,
2013-06-13 21:44:00,61.0,59.6,29.59,WNW,292,6.0,10.0,95,-99.99,,,0.76,0.00,VWS V14.01,2013-06-14 01:44:00,
2013-06-13 21:49:00,61.0,59.9,29.59,West,270,7.0,9.0,96,-99.99,,,0.76,0.00,VWS V14.01,2013-06-14 01:49:00,
2013-06-13 21:54:00,61.0,59.9,29.59,NW,315,8.0,10.0,96,-99.99,,,0.76,0.00,VWS V14.01,2013-06-14 01:54:00,
2013-06-13 21:59:00,61.0,59.9,29.60,North,0,8.0,10.0,96,-99.99,,,0.76,0.00,VWS V14.01,2013-06-14 01:59:00,
2013-06-13 22:04:00,61.0,59.6,29.60,NNW,338,7.0,9.0,95,-99.99,,,0.77,0.00,VWS V14.01,2013-06-14 02:04:00,
2013-06-13 22:09:00,60.0,58.6,29.61,NW,315,6.0,8.0,95,-99.99,,,0.77,0.00,VWS V14.01,2013-06-14 02:09:00,
2013-06-13 22:14:00,60.0,58.6,29.61,WNW,292,5.0,9.0,95,-99.99,,,0.77,0.00,VWS V14.01,2013-06-14 02:14:00,
2013-06-13 22:19:00,60.0,58.6,29.61,West,270,3.0,7.0,95,-99.99,,,0.77,0.00,VWS V14.01,2013-06-14 02:19:00,
2013-06-13 22:24:00,60.0,58.6,29.62,West,270,8.0,12.0,95,-99.99,,,0.77,0.00,VWS V14.01,2013-06-14 02:24:00,
2013-06-13 22:29:00,60.0,58.6,29.62,West,270,7.0,12.0,95,-99.99,,,0.77,0.00,VWS V14.01,2013-06-14 02:29:00,
2013-06-13 22:34:00,60.0,58.9,29.62,WNW,292,4.0,11.0,96,-99.99,,,0.77,0.00,VWS V14.01,2013-06-14 02:34:00,
2013-06-13 22:39:00,60.0,58.9,29.62,West,270,7.0,11.0,96,-99.99,,,0.77,0.00,VWS V14.01,2013-06-14 02:39:00,
2013-06-13 22:44:00,60.0,58.9,29.63,West,270,3.0,7.0,96,-99.99,,,0.77,0.00,VWS V14.01,2013-06-14 02:44:00,
2013-06-13 22:49:00,60.0,58.9,29.63,WNW,292,4.0,9.0,96,-99.99,,,0.77,0.00,VWS V14.01,2013-06-14 02:49:00,
2013-06-13 22:54:00,60.0,58.9,29.62,West,270,7.0,9.0,96,-99.99,,,0.77,0.00,VWS V14.01,2013-06-14 02:54:00,
2013-06-13 22:56:00,59.0,58.4,29.65,NE,45,5.0,5.0,98,-99.99,,,0.78,0.00,VWS V14.01,2013-06-14 02:56:00,
2013-06-13 22:57:00,59.0,58.4,29.65,WNW,292,4.0,5.0,98,-99.99,,,0.78,0.00,VWS V14.01,2013-06-14 02:57:00,
2013-06-13 22:58:00,59.0,58.4,29.64,West,270,4.0,10.0,98,-99.99,,,0.78,0.00,VWS V14.01,2013-06-14 02:58:00,
2013-06-13 22:59:00,60.0,58.9,29.62,WNW,292,5.0,10.0,96,-99.99,,,0.77,0.00,VWS V14.01,2013-06-14 02:59:00,
2013-06-13 23:00:00,59.0,58.4,29.65,WNW,292,7.0,8.0,98,-99.99,,,0.78,0.00,VWS V14.01,2013-06-14 03:00:00,
2013-06-13 23:01:00,59.0,58.4,29.65,West,270,5.0,6.0,98,-99.99,,,0.78,0.00,VWS V14.01,2013-06-14 03:01:00,
2013-06-13 23:02:00,59.0,58.4,29.65,West,270,5.0,5.0,98,-99.99,,,0.78,0.00,VWS V14.01,2013-06-14 03:02:00,
2013-06-13 23:04:00,60.0,58.9,29.62,NNW,338,7.0,11.0,96,-99.99,,,0.77,0.00,VWS V14.01,2013-06-14 03:04:00,
2013-06-13 23:09:00,60.0,58.6,29.61,WNW,292,7.0,9.0,95,-99.99,,,0.77,0.00,VWS V14.01,2013-06-14 03:09:00,
2013-06-13 23:14:00,60.0,58.6,29.62,WNW,292,9.0,10.0,95,-99.99,,,0.77,0.00,VWS V14.01,2013-06-14 03:14:00,
2013-06-13 23:19:00,60.0,58.6,29.62,West,270,8.0,8.0,95,-99.99,,,0.77,0.00,VWS V14.01,2013-06-14 03:19:00,
2013-06-13 23:24:00,60.0,58.6,29.62,West,270,2.0,5.0,95,-99.99,,,0.77,0.00,VWS V14.01,2013-06-14 03:24:00,
2013-06-13 23:29:00,60.0,58.6,29.63,WNW,292,8.0,8.0,95,-99.99,,,0.77,0.00,VWS V14.01,2013-06-14 03:29:00,
2013-06-13 23:34:00,60.0,58.6,29.63,NW,315,9.0,10.0,95,-99.99,,,0.77,0.00,VWS V14.01,2013-06-14 03:34:00,
2013-06-13 23:39:00,60.0,58.6,29.63,NW,315,6.0,9.0,95,-99.99,,,0.77,0.00,VWS V14.01,2013-06-14 03:39:00,
2013-06-13 23:44:00,59.0,57.9,29.63,NW,315,8.0,8.0,96,-99.99,,,0.77,0.00,VWS V14.01,2013-06-14 03:44:00,
2013-06-13 23:49:00,59.0,58.2,29.64,WNW,292,5.0,9.0,97,-99.99,,,0.78,0.00,VWS V14.01,2013-06-14 03:49:00,
2013-06-13 23:54:00,59.0,58.2,29.64,WNW,292,4.0,7.0,97,-99.99,,,0.78,0.00,VWS V14.01,2013-06-14 03:54:00,
2013-06-13 23:59:00,59.0,58.4,29.64,North,0,4.0,5.0,98,-99.99,,,0.78,0.00,VWS V14.01,2013-06-14 03:59:00,